Location: *
(49.8278°S, 165.4414°W)
Time: 09:30:01
(UTC+00:00)

Daily predictions for brighter satellites

Satellite Brightness Start Highest point End
(mag) Time Altitude Azimuth Time Altitude Azimuth Time Altitude Azimuth
Cosmos 1461 3.1 12:01:54 10° SW 12:06:08 73° SE 12:10:29 10° NE
Cosmos 2322 3.7 12:01:16 10° SSW 12:07:06 86° WNW 12:12:26 12° NNE
Cosmos 1455 3.1 12:06:46 23° WNW 12:08:21 34° WSW 12:11:45 10° S
SL-8 R/B 3.6 12:09:12 10° W 12:14:04 77° N 12:18:56 10° E
USA 307 3.2 12:12:57 10° WSW 12:15:05 32° S 12:17:08 10° E
Cosmos 2219 Rocket 2.4 12:10:31 10° SW 12:16:00 52° WNW 12:19:40 20° N
Cosmos 2360 Rocket 3.3 12:12:28 10° SW 12:17:12 27° WNW 12:19:37 20° NW
Cosmos 1242 Rocket 2.2 12:15:44 10° SSW 12:19:04 84° W 12:20:37 29° N
Cosmos 2227 Rocket 4.5 12:16:52 10° NE 12:19:48 14° E 12:22:44 10° ESE
ATLAS 5 CENTAUR R/B 2.0 12:13:50 10° SW 12:19:56 81° NW 12:24:44 10° NE
SL-27 R/B 2.7 12:20:59 29° NW 12:22:15 49° WSW 12:25:22 10° SSE
Cosmos 1441 Rocket 3.2 12:22:22 27° NNW 12:24:18 71° WSW 12:28:09 10° S
Cosmos 2151 Rocket 3.8 12:22:14 24° NNW 12:24:53 64° WSW 12:29:30 10° S
Cosmos 1680 Rocket 4.0 12:20:20 10° SW 12:25:27 45° WNW 12:28:41 21° NNW
Helios 1A Rocket 2.8 12:22:39 10° SSE 12:26:38 83° WSW 12:28:51 25° NNW
Cosmos 1346 Rocket 3.1 12:27:44 22° N 12:30:07 61° E 12:34:03 10° SSE
Cosmos 2100 Rocket 4.3 12:24:15 10° SSW 12:30:20 55° W 12:34:44 19° NNW
Resurs 1-4 Rocket 2.6 12:27:37 21° NNW 12:30:43 43° W 12:35:49 10° SSW
NOSS 0 Rocket 4.0 12:25:42 10° SSW 12:31:59 83° ESE 12:38:15 10° NNE
USA 306 2.8 12:28:59 10° WSW 12:32:23 65° SSE 12:36:06 10° ENE
ALOS 2.8 12:30:45 10° NNE 12:35:21 60° ESE 12:40:01 10° S
Cosmos 1459 Rocket 4.3 12:31:58 10° SSW 12:38:13 54° W 12:42:52 18° NNW
MSX 4.3 12:36:06 19° NNW 12:39:53 44° W 12:45:26 10° SSW
Cosmos 2322 Rocket 4.1 12:39:20 10° WSW 12:41:48 13° W 12:43:43 11° WNW
Cosmos 1725 Rocket 4.1 12:35:33 10° SSW 12:41:58 75° W 12:47:29 14° N
Cosmos 1048 Rocket 4.3 12:36:59 10° SSW 12:42:25 75° ESE 12:47:44 10° NNE
Cosmos 1802 Rocket 4.2 12:41:03 10° SSW 12:47:18 57° W 12:52:15 16° NNW
AQUA 4.1 12:44:52 18° N 12:48:14 52° W 12:52:57 10° SSW
FENGYUN 3A 3.7 12:43:32 13° N 12:48:21 72° WNW 12:53:49 10° SSW
SL-16 R/B 4.3 12:43:50 10° SSW 12:48:50 30° SE 12:53:48 10° ENE
Cosmos 292 Rocket 3.9 12:45:32 20° NNW 12:48:57 72° WSW 12:53:51 10° SSE
FAST Rocket 4.3 12:54:10 10° S 12:57:24 70° E 12:59:36 14° NNE
SL-24 R/B - RUBIN 2 4.1 12:53:57 17° NNW 12:58:01 63° NE 13:02:50 10° SE
Cosmos 2084 Rocket 3.7 12:53:28 10° SW 12:58:16 87° NW 13:03:03 10° NE
Cosmos 2297 Rocket 2.7 13:01:03 13° N 13:05:57 54° ENE 13:11:31 10° SE
Okean 1 Rocket 3.8 13:05:24 16° NW 13:08:36 41° WSW 13:12:51 10° S
Cosmos 1980 3.7 13:02:59 10° SSW 13:08:44 84° WNW 13:14:25 10° NNE
Cosmos 1892 Rocket 3.7 13:05:14 10° SSW 13:09:42 64° W 13:13:52 12° N
USA 32 4.1 13:08:19 12° N 13:13:16 90° ENE 13:18:38 10° S
Cosmos 1125 Rocket 4.0 13:11:45 11° N 13:16:42 56° ENE 13:21:53 10° SSE
ISS -3.6 13:13:55 10° WSW 13:17:15 50° NNW 13:20:35 10° NE
Cosmos 494 Rocket 4.3 13:12:40 10° SSW 13:17:43 49° WNW 13:22:40 10° N
CZ-4 R/B 4.0 13:15:22 11° N 13:19:48 52° W 13:24:28 10° SSW
IDEFIX/ARIANE 42P 4.3 13:18:05 12° NW 13:21:06 18° W 13:24:41 10° SW
Cosmos 2061 Rocket 4.4 13:15:09 10° SSW 13:21:10 50° W 13:27:06 10° NNW
YAOGAN 6 3.9 13:19:21 10° NE 13:22:33 39° ESE 13:25:50 10° S
COSMOS 2428 3.6 13:18:24 10° SW 13:23:21 31° WNW 13:28:13 10° NNW
CZ-2D R/B 3.8 13:20:21 12° NW 13:23:37 19° W 13:27:26 10° SW
METEOR-M 4.2 13:20:28 10° NNE 13:25:52 88° WNW 13:31:21 10° SSW
Envisat 3.3 13:21:02 10° NNE 13:26:08 76° ESE 13:31:19 10° SSW
USA 305 1.0 13:24:39 10° WSW 13:26:35 68° SSE 13:28:22 10° ENE
ADEOS II 3.4 13:24:48 13° NW 13:28:22 24° W 13:32:38 10° SW
CZ-2C R/B 3.7 13:24:13 10° N 13:29:51 50° W 13:35:36 10° SSW
COBE Rocket 3.8 13:27:14 10° N 13:31:57 83° WNW 13:36:50 10° SSW
Cosmos 2237 Rocket 2.3 13:26:51 10° SW 13:32:33 62° WNW 13:38:11 10° NNE
CZ-2C R/B 2.5 13:30:15 10° NNE 13:35:20 87° WNW 13:40:18 10° SSW
USA 276 2.6 13:38:41 12° NW 13:41:19 42° NNE 13:44:16 10° E
Cosmos 2263 Rocket 4.2 13:40:07 10° NNE 13:44:31 23° ENE 13:48:54 10° SE
Cosmos 1455 Rocket 3.7 13:41:15 11° NW 13:45:14 41° WSW 13:49:26 10° S
BREEZE M DEB (TANK) 2.8 13:43:02 10° W 13:45:18 41° NNW 13:49:47 10° NE
USA 215 3.8 13:39:28 10° NNE 13:45:21 35° NW 13:51:19 10° WSW
USA 307 1.4 13:48:15 10° WSW 13:50:23 44° NNW 13:52:26 10° NE
Cosmos 2058 3.1 13:50:43 10° SSW 13:54:48 56° W 13:58:52 10° N
SL-8 R/B 3.9 13:51:38 10° W 13:56:22 52° NNW 14:01:05 10° NE
Cosmos 1758 Rocket 3.7 13:52:26 10° S 13:56:59 88° E 14:01:26 10° N
CZ-2C R/B 4.2 13:52:57 10° SSE 13:58:07 36° E 14:03:16 10° NNE
ATLAS 5 CENTAUR R/B 3.6 14:00:00 10° WSW 14:02:53 15° WNW 14:05:32 10° NW
Cosmos 2227 Rocket 2.4 13:57:13 10° NNW 14:02:54 80° ENE 14:08:40 10° SSE
NOSS 3-4 (A) 3.6 14:02:03 10° SW 14:09:16 71° NW 14:15:26 10° NNE
NOSS 3-4 (C) 3.7 14:02:02 10° SW 14:09:18 71° NW 14:15:33 10° NNE
